Regional Weather Roundup
Issued by NWS Midland/Odessa, TX

Skip options and go directly to product.
Home | Oldest Version | Next Version | Current Version | All | Text Only | Save Text | Print | Product List | Glossary On

Skip product version selection by date and time.   
084
ASUS44 KMAF 191801
RWRMAF
MIDLAND AREA WEATHER ROUNDUP
NATIONAL WEATHER SERVICE MIDLAND TX
1200 PM CST FRI DEC 19 2014

...IN SOUTHWEST TEXAS AND SOUTHEAST NEW MEXICO...

CITY           SKY/WX    TMP DP  RH WIND       PRES   REMARKS
ALPINE         MOSUNNY   56  30  37 NW7       30.24F
ANDREWS        CLOUDY    41  39  91 CALM      30.19S
ARTESIA        SUNNY     52  30  43 NE5       30.18F
BIG SPRING     CLOUDY    43  39  85 CALM      30.22F
CARLSBAD       SUNNY     54  34  46 N6        30.17F
DRYDEN           N/A     59  41  51 VRB3      30.14F
FORT STOCKTON  SUNNY     57  36  45 W14G22    30.18S
GUAD PASS      NOT AVBL
HOBBS          SUNNY     45  39  81 N5        30.18F
MARFA          SUNNY     52  30  43 W15       30.22F
MIDLAND AIRPK  CLOUDY    44  39  83 CALM      30.20F
MIDLAND INTL   CLOUDY    44  39  82 CALM      30.18F
ODESSA         CLOUDY    44  38  79 VRB3      30.19S
PECOS          SUNNY     54  38  55 NW9       30.20S
PRESIDIO       FAIR      56  35  45 W6        30.20F
SEMINOLE       CLOUDY    39  38  95 CALM      30.20S
SNYDER         CLOUDY    41  37  85 CALM      30.20F
WINK           CLOUDY    46  38  73 CALM      30.19S
$$
...OTHER STATIONS IN TEXAS...

CITY           SKY/WX    TMP DP  RH WIND       PRES   REMARKS
ABILENE        CLOUDY    46  41  82 N8        30.19F
AMARILLO       FOG       37  37 100 S8        30.18F VSB 1/2 WCI  31
AUSTIN         PTSUNNY   54  50  86 N17       30.12F
BROWNSVILLE    CLOUDY    71  66  84 W7        30.00F
CORPUS CHRISTI DRIZZLE   56  53  90 N17       30.04F
DALLAS FTW     CLOUDY    47  44  90 N12       30.17F FOG
DEL RIO        PTSUNNY   65  51  60 N7        30.12F
EL PASO        MOSUNNY   49  37  63 NE3       30.23S
HOUSTON INT    HVY RAIN  53  52  96 N14       30.08S FOG
LUBBOCK        CLOUDY    38  37  97 VRB5      30.18F FOG     WCI  34
SAN ANGELO     CLOUDY    48  43  82 NE5       30.18F
SAN ANTONIO    PTSUNNY   59  49  69 N13       30.11S
WACO           CLOUDY    48  47  96 N13       30.16F FOG
WICHITA FALLS  NOT AVBL
$$
...OTHER LOCATIONS IN NEW MEXICO...

CITY           SKY/WX    TMP DP  RH WIND       PRES   REMARKS
ALAMAGORDO     SUNNY     46  32  57 NW13      30.22F
ALBUQUERQUE    MOSUNNY   40  24  53 NW9G21    30.24F WCI  34
CANNON AFB     MOSUNNY   39  31  71 VRB5      30.15F WCI  36
CLOVIS         CLOUDY    39  32  75 NE3       30.15F
HOLLOMAN AFB   SUNNY     46  33  59 N9        30.21F
ROSWELL        SUNNY     51  28  41 VRB3      30.17F
RUIDOSO        SUNNY     37  21  52 NW15      30.20R WCI  28
SANTA FE       SUNNY     35  22  58 N17       30.18F WCI  25
TRUTH OR CONSE SUNNY     42  28  57 SE3       30.24S
TUCUMCARI      CLOUDY    38  30  73 SE3       30.14F
$$

USA.gov is the U.S. government's official web portal to all federal, state and local government web resources and services.